Change the Weather History Date:

Thursday, October 28, 2010

  Actual Average Record
Temperature  
Mean Temperature 45 °F 47 °F  
Max Temperature 61 °F 60 °F 90 °F (1922)
Min Temperature 28 °F 35 °F 6 °F (1925)
Degree Days  
Heating Degree Days 20 18  
Month to date heating degree days 244 352  
Since 1 July heating degree days 306 467  
Cooling Degree Days 0 0  
Month to date cooling degree days 9 10  
Year to date cooling degree days 1139 1033  
Moisture  
Dew Point 24 °F    
Average Humidity 50    
Maximum Humidity 75    
Minimum Humidity 25    
Precipitation  
Precipitation 0.00 in 0.05 in 1.25 in (1901)
Month to date precipitation 0.30 1.72  
Year to date precipitation 28.61 24.72  
Snow  
Snow 0.00 in 0.10 in 0.80 in (1925)
Month to date snowfall 0.0 0.8  
Since 1 July snowfall 0.0 0.9  
Since 1 September snowfall 0.0 0.9  
Snow Depth 0.00 in    
Sea Level Pressure  
Sea Level Pressure 30.42 in    
Wind  
Wind Speed 10 mph (WNW)    
Max Wind Speed 22 mph    
Max Gust Speed 26 mph    
Visibility 10 miles    
Events      
T = Trace of Precipitation, MM = Missing Value Source: NWS Daily Summary

Daily Weather History Graph

Daily Weather History Graph

Search for Another Location

Airport or City:

Trip Planner

Search our weather history database for the weather conditions in past years. The results will help you decide how hot, cold, wet, or windy it might be!

Date:

Astronomy

Oct. 28, 2010 Rise Set
Actual Time 7:59 AM CDT 6:34 PM CDT
Civil Twilight 7:31 AM CDT 7:02 PM CDT
Nautical Twilight 6:58 AM CDT 7:34 PM CDT
Astronomical Twilight 6:26 AM CDT 8:06 PM CDT
Moon 11:05 PM CDT (10/28) 1:22 PM CDT (10/28)
Length of Visible Light 11h 31m
Length of Day
10h 34m
Waning Gibbous, 70% of the Moon is Illuminated
Oct 28
Waning Gibbous
Oct 30
Last Quarter
Nov 5
New
Nov 13
First Quarter
Nov 21
Full

Hourly Weather History & Observations

Time (CDT) Temp. Windchill Dew Point Humidity Pressure Visibility Wind Dir Wind Speed Gust Speed Precip Events Conditions
12:53 AM 30.9 °F 23.5 °F 23.0 °F 72% 30.28 in 10.0 mi NW 8.1 mph - N/A   Clear
1:53 AM 32.0 °F 26.4 °F 23.0 °F 69% 30.30 in 10.0 mi NW 5.8 mph - N/A   Clear
2:53 AM 30.9 °F 26.2 °F 21.0 °F 67% 30.31 in 10.0 mi NW 4.6 mph - N/A   Clear
3:53 AM 30.9 °F 25.2 °F 21.0 °F 67% 30.34 in 10.0 mi WNW 5.8 mph - N/A   Clear
4:53 AM 32.0 °F 24.2 °F 21.9 °F 66% 30.37 in 10.0 mi West 9.2 mph - N/A   Clear
5:53 AM 30.0 °F 20.5 °F 21.9 °F 72% 30.40 in 10.0 mi West 11.5 mph - N/A   Clear
6:53 AM 28.9 °F 21.1 °F 21.0 °F 72% 30.43 in 10.0 mi West 8.1 mph - N/A   Clear
7:53 AM 30.0 °F 20.0 °F 21.9 °F 72% 30.44 in 10.0 mi West 12.7 mph - N/A   Clear
8:53 AM 35.1 °F 26.9 °F 24.1 °F 64% 30.46 in 10.0 mi WNW 11.5 mph - N/A   Clear
9:53 AM 41.0 °F 32.8 °F 25.0 °F 53% 30.50 in 10.0 mi WNW 16.1 mph - N/A   Clear
10:53 AM 48.2 °F - 24.8 °F 40% 30.47 in 10.0 mi NNW 16.1 mph - N/A   Clear
11:53 AM 52.0 °F - 24.1 °F 34% 30.50 in 10.0 mi NNW 17.3 mph - N/A   Clear
12:53 PM 55.0 °F - 25.0 °F 31% 30.49 in 10.0 mi NW 18.4 mph - N/A   Clear
1:53 PM 57.9 °F - 25.0 °F 28% 30.48 in 10.0 mi NNW 16.1 mph - N/A   Clear
2:53 PM 60.1 °F - 25.0 °F 26% 30.44 in 10.0 mi NNW 12.7 mph 20.7 mph N/A   Clear
3:53 PM 60.1 °F - 24.1 °F 25% 30.43 in 10.0 mi NNW 9.2 mph - N/A   Clear
4:53 PM 61.0 °F - 24.1 °F 24% 30.43 in 10.0 mi WNW 5.8 mph - N/A   Clear
5:53 PM 57.9 °F - 25.0 °F 28% 30.42 in 10.0 mi NE 3.5 mph - N/A   Clear
6:53 PM 48.0 °F - 27.0 °F 44% 30.42 in 10.0 mi ESE 5.8 mph - N/A   Clear
7:53 PM 52.0 °F - 26.1 °F 37% 30.43 in 10.0 mi SE 10.4 mph - N/A   Clear
8:53 PM 45.0 °F 41.8 °F 27.0 °F 49% 30.43 in 10.0 mi SSE 5.8 mph - N/A   Clear
9:53 PM 42.1 °F 37.1 °F 27.0 °F 55% 30.41 in 10.0 mi South 8.1 mph - N/A   Clear
10:53 PM 37.9 °F 32.7 °F 27.0 °F 65% 30.40 in 10.0 mi SSE 6.9 mph - N/A   Clear
11:53 PM 37.9 °F 32.1 °F 26.1 °F 62% 30.39 in 10.0 mi SSE 8.1 mph - N/A   Clear